Tracking 18665 objects as of 23-June-2017
HD Live streaming from Space Station
objects crossing your sky now

DELTA 1 R/B

Track DELTA 1 R/B now!
10-day predictions


NORAD ID: 4251
Int'l Code: 1969-101B
Perigee: 348.1 km
Apogee: 17,734.7 km
Inclination: 27.8 °
Period: 317.4 minutes
Semi major axis: 15412 km
RCS: 1.8664 m2 (large)
Launch date: November 22, 1969
Source: United States (US)
Launch site: AIR FORCE EASTERN TEST RANGE (AFETR)

Note: This is a ROCKET BODY
Your satellite tracking list
Your tracking list is empty





NASA's NSSDC Master Catalog

Two Line Element Set (TLE):
1  4251U 69101B   17172.53730764 +.00000360 +00000-0 +10740-3 0  9996
2  4251 027.7542 026.9895 5640473 332.3100 006.5856 04.53730403528724
Source of the keplerian elements: AFSPC